Satellite-Ground Cal/Val Site Overpasses Predictions

Prediction of Satellite NPP Overpassing Cal/Val Site: Antarctic Dome C

Ground Cal/Val Site Location: Latitude: -75.10, Longitude: 123.35; Satellite-Ground Site NADIR distance within 100 km.

Table of predicted overpasses for the next 14.0 days since TLE Epoch: 6/30/2024
Interval Starting Time Ending Time Minimum Distance Time Minimum Distance (km)
1 06/30/2024 15:01:04 06/30/2024 15:01:28 06/30/2024 15:01:16 57.21
2 07/01/2024 14:42:16 07/01/2024 14:42:41 07/01/2024 14:42:28 51.76
3 07/02/2024 07:43:57 07/02/2024 07:44:17 07/02/2024 07:44:07 71.70
4 07/03/2024 07:25:06 07/03/2024 07:25:34 07/03/2024 07:25:20 36.07
5 07/05/2024 15:07:37 07/05/2024 15:07:44 07/05/2024 15:07:40 95.84
6 07/06/2024 14:48:37 07/06/2024 14:49:06 07/06/2024 14:48:51 15.40
7 07/08/2024 07:31:29 07/08/2024 07:31:59 07/08/2024 07:31:44 1.43
8 07/11/2024 14:55:00 07/11/2024 14:55:29 07/11/2024 14:55:15 21.93
9 07/12/2024 14:36:20 07/12/2024 14:36:35 07/12/2024 14:36:27 85.05
